Location: Bay Ridge
(40.6340°N, 74.0146°W)
Time: 02:14:20
(UTC+00:00)

Cosmos 923 Rocket - Pass Details

Date: 15 November 2019
Orbit: 759 x 785 km, 74.0° (Epoch: 14 December)

Event Time Altitude Azimuth Distance (km) Brightness Sun altitude
Exits shadow 09:35:34 65° 294° (WNW) 837 3.9 -24.1°
Maximum altitude 09:36:04 71° 254° (WSW) 809 3.8 -24.0°
Drops below altitude 10° 09:41:15 10° 171° (S) 2,298 6.6 -23.0°
Sets 09:43:38 0° 169° (S) 3,225 7.4 -22.5°
